This is the latest recevied weather packets stored in our database for station/object K3RUP-1. If no packets are shown the sender has not sent any weather packets the latest 10 day(s).
| Time | Temp. | Humidity | Pressure | Rain* | Wind** | Luminosity | Snow |
|---|---|---|---|---|---|---|---|
| 1777913571 | 22.78° C | 41% | 1012.1 hPa | 0 mm | - | 646 W/m² | - |
| 1777913267 | 22.22° C | 42% | 1012.3 hPa | 0 mm | - | 704 W/m² | - |
| 1777912965 | 22.22° C | 43% | 1012.2 hPa | 0 mm | - | 684 W/m² | - |
| 1777912660 | 21.67° C | 42% | 1012.5 hPa | 0 mm | - | 643 W/m² | - |
| 1777912356 | 22.78° C | 43% | 1012.5 hPa | 0 mm | - | 661 W/m² | - |
| 1777912053 | 22.22° C | 44% | 1012.7 hPa | 0 mm | - | 698 W/m² | - |
| 1777911749 | 21.67° C | 41% | 1012.9 hPa | 0 mm | - | 711 W/m² | - |
| 1777911446 | 21.11° C | 45% | 1012.9 hPa | 0 mm | - | 686 W/m² | - |
| 1777911142 | 21.11° C | 42% | 1012.7 hPa | 0 mm | - | 662 W/m² | - |
| 1777910840 | 21.67° C | 41% | 1013.1 hPa | 0 mm | - | 693 W/m² | - |
| 1777910536 | 21.67° C | 41% | 1012.9 hPa | 0 mm | - | 741 W/m² | - |
| 1777910234 | 21.67° C | 42% | 1012.9 hPa | 0 mm | - | 709 W/m² | - |
| 1777909930 | 21.11° C | 41% | 1013.2 hPa | 0 mm | - | 710 W/m² | - |
| 1777909627 | 21.67° C | 42% | 1013.1 hPa | 0 mm | - | 705 W/m² | - |
| 1777909325 | 21.67° C | 42% | 1013.2 hPa | 0 mm | - | 725 W/m² | - |
| 1777909023 | 21.67° C | 44% | 1013.2 hPa | 0 mm | - | 734 W/m² | - |
| 1777908720 | 21.67° C | 39% | 1013.1 hPa | 0 mm | - | 756 W/m² | - |
| 1777908417 | 21.11° C | 42% | 1013.1 hPa | 0 mm | - | 758 W/m² | - |
| 1777908114 | 20.56° C | 41% | 1013.3 hPa | 0 mm | - | 757 W/m² | - |
| 1777907810 | 20.56° C | 42% | 1013.5 hPa | 0 mm | - | 755 W/m² | - |
| 1777907505 | 20° C | 43% | 1013.5 hPa | 0 mm | - | 277 W/m² | - |
| 1777907202 | 19.44° C | 43% | 1013.4 hPa | 0 mm | - | 306 W/m² | - |
| 1777906899 | 19.44° C | 45% | 1013.6 hPa | 0 mm | - | 477 W/m² | - |
| 1777906596 | 18.89° C | 45% | 1013.7 hPa | 0 mm | - | 124 W/m² | - |
| 1777906291 | 18.89° C | 45% | 1013.8 hPa | 0 mm | - | 190 W/m² | - |
* Rain latest hour (hover to see other rain measurements)
** Current wind speed in m/s (hover to see current wind gust speed)